Dati Storici

Data ora Umidita' aria (%) Temperatura aria (°C) Rad globale (W/m²) Gonioanemometro (°) Tacoanemometro (m/s) Pioggia (mm)
21-06-2020 10:50 65.4 % 25.152 74.465 2.529 0 0
21-06-2020 10:40 64.4 % 24.966 144.371 2.44 0 0
21-06-2020 10:30 66.1 % 25.167 132.57 2.658 0 0
21-06-2020 10:20 66.2 % 25.156 98.762 1.167 0 0
21-06-2020 10:10 66.4 % 25.345 171.44 1.335 0 0
21-06-2020 10:00 66.3 % 25.654 85.559 1.237 0 0
21-06-2020 09:50 66.4 % 24.96 93.07 0.929 0 0
21-06-2020 09:40 67.1 % 24.287 111.867 1.33 0 0
21-06-2020 09:30 64.9 % 24.51 101.397 1.622 0 0
21-06-2020 09:20 62.7 % 24.75 61.701 -0.032 0 0
21-06-2020 09:10 61.2 % 24.847 122.666 1.766 0 0
21-06-2020 09:00 67.5 % 24.96 92.772 -0.031 0 0
21-06-2020 08:50 67.9 % 23.915 93.763 1.255 0 0
21-06-2020 08:40 70.5 % 23.808 38.601 1.429 0 0
21-06-2020 08:30 71.9 % 24.22 98.194 1.202 0 0
21-06-2020 08:20 69.9 % 24.073 193.209 0.901 0 0
21-06-2020 08:10 68.9 % 23.855 32.873 -0.036 0 0
21-06-2020 08:00 70.2 % 24.022 87.049 0.192 0 0
21-06-2020 07:50 70.2 % 23.741 5.223 0.243 0 0
21-06-2020 07:40 70.8 % 23.559 8.026 1.127 0 0

I dati sono presentati in modo automatico a scopo informativo. In seguito a verifica i dati possono subire modifiche o essere invalidati e non riportati negli archivi definitivi.